Regional Weather Roundup
Issued by NWS Memphis, TN

Home | Current Version | Previous Version | Text Only | Print | Product List | Glossary On
Versions: 1 2 3 4 5 6 7 8 9 10 11 12 13 14 15 16 17 18 19 20 21 22 23 24 25 26 27 28 29 30 31 32 33 34 35 36 37 38 39 40 41 42 43 44 45 46 47 48 49 50
000
ASUS44 KMEG 261710
RWRMEG
MEMPHIS CWA HOURLY WEATHER ROUNDUP
NATIONAL WEATHER SERVICE MEMPHIS TN
1200 PM CDT WED JUL 26 2017

...WEST TENNESSEE...

CITY           SKY/WX    TMP DP  RH WIND       PRES   REMARKS
MEMPHIS INTL   MOSUNNY   93  75  55 W7        30.11S HX 104
NWS MEMPHIS      N/A     92 N/A N/A MISG        N/A
JACKSON        SUNNY     92  75  57 W6        30.10F HX 103
COVINGTON      SUNNY     91  75  59 W8        30.10S HX 102
SOMERVILLE       N/A     93  75  55 S7        30.10S HX 104
BOLIVAR        PTSUNNY   91  75  59 SW6       30.10S HX 102
LEXINGTON      MOSUNNY   91  75  59 S5        30.10F HX 102
SELMER         SUNNY     91  75  59 W6        30.10F HX 102
SAVANNAH       MOSUNNY   91  75  59 CALM      30.10S HX 102
UNION CITY     SUNNY     91  79  66 SW7       30.08S HX 107
PARIS          SUNNY     90  77  66 SW5       30.09S HX 102
HUNTINGDON     SUNNY     93  77  59 SW9       30.09S HX 107


...EASTERN ARKANSAS...

CITY           SKY/WX    TMP DP  RH WIND       PRES   REMARKS
JONESBORO      SUNNY     92  79  65 SW10G18   30.08F HX 108
WEST MEMPHIS   SUNNY     91  78  65 VRB6      30.09S HX 106
BATESVILLE     SUNNY     93  72  49 W8        30.09F HX 100
WALNUT RIDGE   SUNNY     93  73  52 CALM      30.07F HX 102
BLYTHEVILLE    MOSUNNY   91  77  63 SW6       30.09S HX 104
NW BLYTHEVILLE MOSUNNY   93  73  52 SW13      30.08F HX 102
SEARCY         MOSUNNY   91  78  65 VRB6      30.11F HX 106
STUTTGART      SUNNY     91  68  46 W7        30.11F HX  95
PINE BLUFF     SUNNY     89  74  60 NW5       30.11S HX  98
MONTICELLO     SUNNY     90  74  59 VRB5      30.11F HX  99


...NORTH MISSISSIPPI...

CITY           SKY/WX    TMP DP  RH WIND       PRES   REMARKS
TUPELO         SUNNY     93  71  48 CALM      30.11F HX 100
OXFORD         SUNNY     90  72  55 W3        30.13F HX  96
BATESVILLE     SUNNY     89  74  59 CALM      30.11F HX  98
OLIVE BRANCH   MOSUNNY  N/A N/A N/A CALM      30.10F
TUNICA           N/A     90  73  58 W5        30.11F HX  98
CLARKSDALE       N/A     91  79  66 VRB3      30.11F HX 107
CORINTH        MOSUNNY   90  73  58 CALM      30.10F HX  98
GREENWOOD      SUNNY     89  76  65 VRB5      30.12F HX 100
COLUMBUS       MOSUNNY   91  78  67 CALM      30.11F HX 105
STARKVILLE     SUNNY     90  73  58 CALM      30.13F HX  98
GOLDEN TRIANGL SUNNY     91  72  52 CALM      30.08F HX  98


...SOUTHEAST MISSOURI...

CITY           SKY/WX    TMP DP  RH WIND       PRES   REMARKS
KENNETT        SUNNY     93  75  55 SW10      30.06F HX 104
MALDEN         SUNNY     93  77  59 SW6       30.08F HX 107
WEST PLAINS    CLOUDY    90  71  53 W6        30.12F HX  96
POPLAR BLUFF   SUNNY     90  80  72 S6        30.06F HX 107
CAPE GIRARDEAU SUNNY     91  79  67 SW6       30.06S HX 107


...NORTHWEST ALABAMA...

CITY           SKY/WX    TMP DP  RH WIND       PRES   REMARKS
MUSCLE SHOALS  MOSUNNY   91  73  55 VRB3      30.13F HX  99


...MIDDLE TENNESSEE...

CITY           SKY/WX    TMP DP  RH WIND       PRES   REMARKS
NASHVILLE      PTSUNNY   91  71  51 SW6       30.11F HX  97
CLARKSVILLE    PTSUNNY   89  72  56 S3        30.09F HX  96
COLUMBIA       MOSUNNY   90  75  62 CALM      30.10S HX 100


...WESTERN KENTUCKY...

CITY           SKY/WX    TMP DP  RH WIND       PRES   REMARKS
PADUCAH        SUNNY     92  76  59 S8        30.07S HX 104
FORT CAMPBELL  SUNNY     91  75  60 W6        30.09F HX 101


...CENTRAL ARKANSAS...

CITY           SKY/WX    TMP DP  RH WIND       PRES   REMARKS
LITTLE ROCK    MOSUNNY   91  75  59 S9        30.09F HX 101


SKY/WX REPORTED AS FAIR MEANS FEW OR NO CLOUDS BELOW
12 THOUSAND FEET.




USA.gov is the U.S. government's official web portal to all federal, state and local government web resources and services.